User: anonymous   Login
Location: Maiden
(35.5760°N, 81.2120°W)
Time: 18:02:44
(UTC-04:00)
Language:

Cosmos 2151 - Orbit

View from above orbital plane
View from above orbital plane
View from above satellite
View from above satellite

Ground track
Ground track

The orbit data is extracted from the following two-line orbital elements,

1 21422U 91042A   14297.80224168  .00003127  00000-0  31820-3 0   497
2 21422 082.5010 085.4311 0013313 280.0416 079.9300 14.90407679264460
Epoch (UTC): 24 October 2014 19:15:13
Eccentricity: 0.0013313
inclination: 82.5010°
perigee height: 587 km
apogee height: 606 km
right ascension of ascending node: 85.4311°
argument of perigee: 280.0416°
revolutions per day: 14.90407679
mean anomaly at epoch: 79.9300°
orbit number at epoch: 26446

The dashed part of the orbit path shows where the satellite is in the earth's shadow,  

DLR